Weather reports worldwide

Advertisment
Jerez De La Frontera aeropuert, Spain (8451): temperature & dewpoint: 11.06.2019 20:00:00 - 17.06.2019 20:00:00 (CEST)Jerez De La Frontera aeropuert, Spain (8451): wind speed: 11.06.2019 20:00:00 - 17.06.2019 20:00:00 (CEST)Jerez De La Frontera aeropuert, Spain (8451): wind direction: 11.06.2019 20:00:00 - 17.06.2019 20:00:00 (CEST)Jerez De La Frontera aeropuert, Spain (8451): reduced air pressure: 11.06.2019 20:00:00 - 17.06.2019 20:00:00 (CEST)Jerez De La Frontera aeropuert, Spain (8451): visibility: 11.06.2019 20:00:00 - 17.06.2019 20:00:00 (CEST)
Date & Time tt [°C] td [°C] ff [km/h] ff [kn] dd ppp [hPa] vv [km]
17.06.2019 20:00:00 - - - - - - -
17.06.2019 19:00:00 26,2 13,8 18 10 WSW 1014,9 10
17.06.2019 18:00:00 27,3 14,0 22 12 WSW 1015,2 10
17.06.2019 17:00:00 28,0 14,3 18 10 SW 1015,3 10
17.06.2019 16:00:00 27,8 15,5 18 10 SW 1015,7 10
17.06.2019 15:00:00 28,1 15,4 18 10 SSW 1016,3 10
17.06.2019 14:00:00 28,9 12,7 16 9 SSW 1017,0 10
17.06.2019 13:00:00 27,3 12,5 11 6 SSE 1017,1 10
17.06.2019 12:00:00 25,7 12,6 9 5 SE 1017,7 10
17.06.2019 11:00:00 23,6 11,3 4 2 - 1018,1 10
17.06.2019 10:00:00 21,4 12,3 5 3 SSE 1018,3 10
17.06.2019 09:00:00 17,5 13,1 4 2 - 1018,2 10
17.06.2019 08:00:00 13,4 12,0 8 4 ENE 1017,9 45
17.06.2019 07:00:00 11,0 10,3 5 3 E 1018,0 10
17.06.2019 06:00:00 11,4 10,8 4 2 ENE 1018,0 10
17.06.2019 05:00:00 11,6 11,0 5 3 E 1018,0 10
17.06.2019 04:00:00 11,7 10,8 4 2 E 1018,4 10
17.06.2019 03:00:00 12,4 11,1 4 2 NE 1018,7 10
17.06.2019 02:00:00 13,2 11,6 4 2 - 1018,9 10
17.06.2019 01:00:00 15,1 13,6 2 1 - 1019,3 10
17.06.2019 00:00:00 17,4 14,5 5 3 S 1019,3 10
16.06.2019 23:00:00 19,1 14,1 11 6 SW 1018,8 10
16.06.2019 22:00:00 20,9 13,6 13 7 WSW 1018,2 10
16.06.2019 21:00:00 23,6 12,4 16 9 WSW 1017,7 10
16.06.2019 20:00:00 25,7 10,6 15 8 WSW 1017,4 10
16.06.2019 19:00:00 26,9 9,9 21 11 SSW 1017,2 10
16.06.2019 18:00:00 27,7 10,4 24 13 SSW 1017,1 10
16.06.2019 17:00:00 28,4 11,8 22 12 SW 1017,0 10
16.06.2019 16:00:00 28,3 14,6 15 8 SSW 1017,1 10
16.06.2019 15:00:00 27,4 15,2 16 9 SW 1017,5 10
16.06.2019 14:00:00 27,3 15,7 15 8 SSW 1017,8 10
16.06.2019 13:00:00 26,0 12,4 21 11 SSW 1018,0 10
16.06.2019 12:00:00 24,8 13,0 13 7 S 1017,7 10
16.06.2019 11:00:00 22,6 13,9 9 5 SSE 1017,6 10
16.06.2019 10:00:00 20,1 13,9 5 3 S 1017,6 10
16.06.2019 09:00:00 15,8 11,6 4 2 - 1017,5 10
16.06.2019 08:00:00 13,3 11,2 2 1 - 1016,3 10
16.06.2019 07:00:00 12,1 10,0 4 2 ENE 1016,6 10
16.06.2019 06:00:00 11,8 9,5 8 4 E 1016,0 10
16.06.2019 05:00:00 11,5 9,6 4 2 - 1016,3 10
16.06.2019 04:00:00 12,2 9,4 0 0 N 1016,5 10
16.06.2019 03:00:00 13,2 10,6 4 2 E 1016,6 10
16.06.2019 02:00:00 13,5 10,5 2 1 - 1017,3 10
16.06.2019 01:00:00 14,2 11,0 2 1 - 1018,0 10
16.06.2019 00:00:00 15,8 11,4 5 3 E 1018,1 10
15.06.2019 23:00:00 18,2 11,8 5 3 WNW 1018,0 10
15.06.2019 22:00:00 19,1 10,9 4 2 - 1017,8 10
15.06.2019 21:00:00 20,5 11,4 18 10 W 1017,6 10
15.06.2019 20:00:00 23,2 10,9 22 12 W 1017,1 10
15.06.2019 19:00:00 25,8 9,9 21 11 W 1017,2 10
15.06.2019 18:00:00 27,8 10,2 16 9 W 1017,3 10
15.06.2019 17:00:00 28,5 7,1 16 9 N 1017,8 10
15.06.2019 16:00:00 27,3 7,5 15 8 NNW 1018,3 10
15.06.2019 15:00:00 26,6 8,1 21 11 NNW 1018,8 10
15.06.2019 14:00:00 26,7 8,2 11 6 NNE 1019,2 10
15.06.2019 13:00:00 25,3 9,4 13 7 N 1019,7 10
15.06.2019 12:00:00 24,5 7,6 13 7 - 1020,0 10
15.06.2019 11:00:00 23,1 9,9 16 9 NNE 1020,0 10
15.06.2019 10:00:00 20,1 10,4 11 6 NNE 1020,1 10
15.06.2019 09:00:00 16,1 9,3 5 3 NNW 1020,2 10
15.06.2019 08:00:00 11,3 8,3 0 0 N 1020,1 10
15.06.2019 07:00:00 9,3 6,9 4 2 NW 1019,8 10
15.06.2019 06:00:00 10,0 7,8 5 3 N 1019,5 10
15.06.2019 05:00:00 10,6 9,4 0 0 N 1019,5 10
15.06.2019 04:00:00 11,2 9,6 0 0 N 1019,5 10
15.06.2019 03:00:00 12,0 9,0 5 3 N 1019,7 10
15.06.2019 02:00:00 13,5 11,0 2 1 - 1019,8 10
15.06.2019 01:00:00 15,7 11,2 8 4 S 1020,2 10
15.06.2019 00:00:00 16,0 10,5 9 5 SW 1020,3 10
14.06.2019 23:00:00 17,6 10,5 9 5 WSW 1020,1 10
14.06.2019 22:00:00 18,2 10,6 16 9 WSW 1019,4 10
14.06.2019 21:00:00 19,5 9,0 22 12 WSW 1019,0 10
14.06.2019 20:00:00 21,2 9,4 22 12 WSW 1018,5 10
14.06.2019 19:00:00 22,3 8,4 21 11 WSW 1018,1 10
14.06.2019 18:00:00 22,6 8,4 22 12 WSW 1018,2 10
14.06.2019 17:00:00 22,5 8,8 22 12 WSW 1018,1 10
14.06.2019 16:00:00 23,1 8,1 22 12 WSW 1018,2 10
14.06.2019 15:00:00 22,6 5,3 26 14 WSW 1018,3 10
14.06.2019 14:00:00 21,8 6,5 26 14 WSW 1018,6 10
14.06.2019 13:00:00 21,7 7,5 24 13 WSW 1018,6 10
14.06.2019 12:00:00 20,7 9,0 21 11 WSW 1018,3 10
14.06.2019 11:00:00 19,4 9,3 18 10 WSW 1017,7 10
14.06.2019 10:00:00 18,7 11,1 18 10 WSW 1017,1 10
14.06.2019 09:00:00 17,2 11,0 18 10 WSW 1016,1 10
14.06.2019 08:00:00 15,7 10,2 11 6 SW 1015,3 10
14.06.2019 07:00:00 15,5 10,3 11 6 SW 1014,6 10
14.06.2019 06:00:00 16,2 12,9 15 8 SSE 1013,3 10
14.06.2019 05:00:00 16,0 12,4 11 6 SSE 1013,3 10
14.06.2019 04:00:00 17,3 12,6 13 7 S 1013,4 10
14.06.2019 03:00:00 18,6 12,8 13 7 S 1013,4 10
14.06.2019 02:00:00 19,1 12,1 15 8 S 1013,6 10
14.06.2019 01:00:00 19,3 12,0 11 6 S 1013,9 10
14.06.2019 00:00:00 19,4 11,4 9 5 SSW 1013,6 10
13.06.2019 23:00:00 20,0 11,2 11 6 SW 1012,8 10
13.06.2019 22:00:00 20,7 10,2 16 9 WSW 1011,6 10
13.06.2019 21:00:00 22,6 11,1 15 8 WSW 1010,6 10
13.06.2019 20:00:00 23,0 11,4 21 11 WSW 1010,5 10
13.06.2019 19:00:00 24,7 10,6 21 11 WSW 1009,8 10
13.06.2019 18:00:00 26,4 12,2 22 12 W 1009,3 10
13.06.2019 17:00:00 27,9 13,4 21 11 WSW 1009,3 10
13.06.2019 16:00:00 28,2 14,0 11 6 SSE 1009,2 10
13.06.2019 15:00:00 27,5 14,6 13 7 S 1009,6 10
13.06.2019 14:00:00 27,8 14,4 9 5 SSE 1010,0 10
13.06.2019 13:00:00 26,7 13,7 5 3 - 1010,4 10
13.06.2019 12:00:00 25,2 12,2 2 1 - 1010,7 10
13.06.2019 11:00:00 22,5 11,1 5 3 WSW 1011,0 10
13.06.2019 10:00:00 19,8 8,2 5 3 WNW 1011,1 10
13.06.2019 09:00:00 17,5 8,8 9 5 W 1011,0 10
13.06.2019 08:00:00 14,6 13,3 2 1 - 1010,9 10
13.06.2019 07:00:00 13,5 12,2 0 0 N 1010,5 10
13.06.2019 06:00:00 14,3 12,8 4 2 - 1010,4 10
13.06.2019 05:00:00 14,6 13,5 9 5 NE 1010,3 10
13.06.2019 04:00:00 15,7 14,1 4 2 N 1010,4 10
13.06.2019 03:00:00 17,5 14,6 8 4 S 1010,8 10
13.06.2019 02:00:00 18,2 15,4 9 5 W 1011,2 10
13.06.2019 01:00:00 17,9 14,7 9 5 SSW 1011,3 10
13.06.2019 00:00:00 19,3 16,9 11 6 WSW 1011,3 10
12.06.2019 23:00:00 20,0 16,6 11 6 WSW 1011,0 10
12.06.2019 22:00:00 21,7 16,4 13 7 W 1010,2 10
12.06.2019 21:00:00 24,1 16,4 13 7 WSW 1009,6 10
12.06.2019 20:00:00 25,7 16,3 15 8 WSW 1009,4 10
12.06.2019 19:00:00 26,8 16,1 18 10 W 1009,5 10
12.06.2019 18:00:00 27,7 15,8 22 12 WSW 1009,8 10
12.06.2019 17:00:00 29,0 14,9 15 8 W 1009,7 10
12.06.2019 16:00:00 29,5 14,3 15 8 SW 1010,1 10
12.06.2019 15:00:00 28,3 13,6 5 3 - 1010,5 10
12.06.2019 14:00:00 28,8 14,6 4 2 - 1011,2 10
12.06.2019 13:00:00 28,0 15,0 9 5 N 1011,5 10
12.06.2019 12:00:00 26,3 14,4 8 4 - 1012,0 10
12.06.2019 11:00:00 24,2 14,8 4 2 - 1012,1 10
12.06.2019 10:00:00 21,4 15,2 5 3 NE 1011,9 10
12.06.2019 09:00:00 18,4 15,8 2 1 - 1011,9 10
12.06.2019 08:00:00 14,8 13,8 2 1 - 1011,6 10
12.06.2019 07:00:00 14,3 13,3 2 1 - 1011,3 10
12.06.2019 06:00:00 15,2 14,7 4 2 - 1011,3 10
12.06.2019 05:00:00 14,6 13,4 4 2 - 1010,7 10
12.06.2019 04:00:00 14,8 13,3 5 3 SE 1010,9 10
12.06.2019 03:00:00 15,0 12,7 5 3 E 1011,0 10
12.06.2019 02:00:00 15,5 13,0 4 2 - 1011,2 10
12.06.2019 01:00:00 16,5 13,6 4 2 - 1011,5 10
12.06.2019 00:00:00 18,0 14,3 8 4 SSE 1011,8 10
11.06.2019 23:00:00 18,8 14,7 9 5 S 1011,7 10
11.06.2019 22:00:00 20,5 13,9 13 7 SW 1011,5 10
11.06.2019 21:00:00 22,0 13,9 21 11 SW 1011,3 10
11.06.2019 20:00:00 23,8 13,1 24 13 WSW 1011,1 10

tt = temperature
td = dewpoint
ff = wind speed
dd = wind direction
ppp = reduced air pressure
vv = visibility

Next stations